Information on these data can be found in provided Readme document
Contact Info: Zachary Fasnacht (zachary.fasnacht@ssaihq.com); Nickolay Krotkov (nickolay.a.krotkov@nasa.gov); Lok Lamsal (lok.lamsal@nasa.gov)

FillValue: -999.
ScaleFactor: 1e15
Units: molecules/cm^2

Date(yyyy-mm-dd),City,Country,LonCenter,LatCenter,BoundingCoordinates,Median,Q1,Q3,Mean,Baseline_Median,Baseline_Q1,Baseline_Q3,Baseline_Mean,NumGoodSamples,NumTotalSamples
2015-01-01,Cordoba,Argentina,-64.1667,-31.4667,[-64.6667 -31.9667 -63.666700000000006 -30.9667],1.101,0.661,1.498,1.03,1.039,0.544,1.513,1.019,205.0,593.0
2015-01-02,Cordoba,Argentina,-64.1667,-31.4667,[-64.6667 -31.9667 -63.666700000000006 -30.9667],1.09,0.653,1.498,0.994,0.973,0.476,1.473,0.966,213.0,585.0
2015-01-03,Cordoba,Argentina,-64.1667,-31.4667,[-64.6667 -31.9667 -63.666700000000006 -30.9667],1.09,0.648,1.473,0.991,0.973,0.467,1.474,0.965,208.0,588.0
2015-01-04,Cordoba,Argentina,-64.1667,-31.4667,[-64.6667 -31.9667 -63.666700000000006 -30.9667],1.072,0.648,1.467,0.985,0.985,0.434,1.446,0.945,238.0,574.0
2015-01-05,Cordoba,Argentina,-64.1667,-31.4667,[-64.6667 -31.9667 -63.666700000000006 -30.9667],0.99,0.467,1.366,0.919,0.964,0.434,1.421,0.936,215.0,577.0
2015-01-06,Cordoba,Argentina,-64.1667,-31.4667,[-64.6667 -31.9667 -63.666700000000006 -30.9667],0.99,0.467,1.339,0.917,0.92,0.361,1.374,0.898,215.0,574.0
2015-01-07,Cordoba,Argentina,-64.1667,-31.4667,[-64.6667 -31.9667 -63.666700000000006 -30.9667],0.996,0.482,1.327,0.893,0.918,0.368,1.372,0.889,206.0,586.0
2015-01-08,Cordoba,Argentina,-64.1667,-31.4667,[-64.6667 -31.9667 -63.666700000000006 -30.9667],0.968,0.362,1.323,0.857,0.956,0.339,1.402,0.911,234.0,583.0
2015-01-09,Cordoba,Argentina,-64.1667,-31.4667,[-64.6667 -31.9667 -63.666700000000006 -30.9667],0.968,0.362,1.31,0.845,0.971,0.352,1.429,0.912,208.0,550.0
2015-01-10,Cordoba,Argentina,-64.1667,-31.4667,[-64.6667 -31.9667 -63.666700000000006 -30.9667],0.968,0.365,1.288,0.862,0.975,0.337,1.438,0.93,184.0,553.0
2015-01-11,Cordoba,Argentina,-64.1667,-31.4667,[-64.6667 -31.9667 -63.666700000000006 -30.9667],0.907,0.361,1.285,0.836,0.94,0.353,1.399,0.923,212.0,541.0
2015-01-12,Cordoba,Argentina,-64.1667,-31.4667,[-64.6667 -31.9667 -63.666700000000006 -30.9667],0.781,0.139,1.095,0.665,0.92,0.335,1.378,0.888,175.0,539.0
2015-01-13,Cordoba,Argentina,-64.1667,-31.4667,[-64.6667 -31.9667 -63.666700000000006 -30.9667],0.781,0.139,1.095,0.665,0.915,0.317,1.367,0.874,175.0,536.0
2015-01-14,Cordoba,Argentina,-64.1667,-31.4667,[-64.6667 -31.9667 -63.666700000000006 -30.9667],0.75,0.132,1.095,0.653,0.908,0.319,1.368,0.869,162.0,538.0
2015-01-15,Cordoba,Argentina,-64.1667,-31.4667,[-64.6667 -31.9667 -63.666700000000006 -30.9667],0.755,0.208,1.068,0.684,0.855,0.301,1.37,0.845,168.0,542.0
2015-01-16,Cordoba,Argentina,-64.1667,-31.4667,[-64.6667 -31.9667 -63.666700000000006 -30.9667],0.782,0.208,1.095,0.706,0.843,0.289,1.342,0.839,199.0,553.0
2015-01-17,Cordoba,Argentina,-64.1667,-31.4667,[-64.6667 -31.9667 -63.666700000000006 -30.9667],0.838,0.29,1.132,0.777,0.853,0.339,1.351,0.861,185.0,554.0
2015-01-18,Cordoba,Argentina,-64.1667,-31.4667,[-64.6667 -31.9667 -63.666700000000006 -30.9667],0.795,0.277,1.134,0.759,0.851,0.358,1.343,0.876,208.0,548.0
2015-01-19,Cordoba,Argentina,-64.1667,-31.4667,[-64.6667 -31.9667 -63.666700000000006 -30.9667],0.735,0.208,1.099,0.692,0.886,0.36,1.377,0.904,186.0,553.0
2015-01-20,Cordoba,Argentina,-64.1667,-31.4667,[-64.6667 -31.9667 -63.666700000000006 -30.9667],0.731,0.166,1.095,0.667,0.873,0.273,1.344,0.859,196.0,539.0
2015-01-21,Cordoba,Argentina,-64.1667,-31.4667,[-64.6667 -31.9667 -63.666700000000006 -30.9667],0.697,0.16,1.107,0.662,0.907,0.306,1.384,0.885,188.0,543.0
2015-01-22,Cordoba,Argentina,-64.1667,-31.4667,[-64.6667 -31.9667 -63.666700000000006 -30.9667],0.712,0.182,1.053,0.665,0.889,0.286,1.394,0.88,190.0,540.0
2015-01-23,Cordoba,Argentina,-64.1667,-31.4667,[-64.6667 -31.9667 -63.666700000000006 -30.9667],0.697,0.182,1.044,0.683,0.83,0.257,1.35,0.842,179.0,552.0
2015-01-24,Cordoba,Argentina,-64.1667,-31.4667,[-64.6667 -31.9667 -63.666700000000006 -30.9667],0.743,0.22,1.181,0.773,0.806,0.26,1.332,0.848,208.0,588.0
2015-01-25,Cordoba,Argentina,-64.1667,-31.4667,[-64.6667 -31.9667 -63.666700000000006 -30.9667],0.747,0.208,1.276,0.766,0.824,0.272,1.347,0.837,227.0,593.0
2015-01-26,Cordoba,Argentina,-64.1667,-31.4667,[-64.6667 -31.9667 -63.666700000000006 -30.9667],0.774,0.208,1.279,0.783,0.811,0.243,1.36,0.824,202.0,594.0
2015-01-27,Cordoba,Argentina,-64.1667,-31.4667,[-64.6667 -31.9667 -63.666700000000006 -30.9667],0.774,0.208,1.279,0.783,0.836,0.272,1.37,0.834,202.0,583.0
2015-01-28,Cordoba,Argentina,-64.1667,-31.4667,[-64.6667 -31.9667 -63.666700000000006 -30.9667],0.774,0.208,1.279,0.783,0.822,0.265,1.402,0.829,202.0,580.0
2015-01-29,Cordoba,Argentina,-64.1667,-31.4667,[-64.6667 -31.9667 -63.666700000000006 -30.9667],0.735,0.27,1.257,0.796,0.803,0.286,1.381,0.833,231.0,577.0
2015-01-30,Cordoba,Argentina,-64.1667,-31.4667,[-64.6667 -31.9667 -63.666700000000006 -30.9667],0.747,0.27,1.32,0.817,0.82,0.309,1.377,0.843,207.0,578.0
2015-01-31,Cordoba,Argentina,-64.1667,-31.4667,[-64.6667 -31.9667 -63.666700000000006 -30.9667],0.734,0.271,1.276,0.781,0.807,0.287,1.393,0.84,197.0,583.0
2015-02-01,Cordoba,Argentina,-64.1667,-31.4667,[-64.6667 -31.9667 -63.666700000000006 -30.9667],0.712,0.251,1.24,0.758,0.814,0.282,1.387,0.838,212.0,594.0
2015-02-02,Cordoba,Argentina,-64.1667,-31.4667,[-64.6667 -31.9667 -63.666700000000006 -30.9667],0.723,0.257,1.181,0.772,0.809,0.274,1.355,0.821,187.0,593.0
2015-02-03,Cordoba,Argentina,-64.1667,-31.4667,[-64.6667 -31.9667 -63.666700000000006 -30.9667],0.764,0.27,1.24,0.814,0.807,0.297,1.306,0.809,195.0,585.0
2015-02-04,Cordoba,Argentina,-64.1667,-31.4667,[-64.6667 -31.9667 -63.666700000000006 -30.9667],0.778,0.316,1.264,0.858,0.842,0.353,1.328,0.846,206.0,589.0
2015-02-05,Cordoba,Argentina,-64.1667,-31.4667,[-64.6667 -31.9667 -63.666700000000006 -30.9667],0.747,0.257,1.181,0.77,0.783,0.303,1.212,0.777,235.0,574.0
2015-02-06,Cordoba,Argentina,-64.1667,-31.4667,[-64.6667 -31.9667 -63.666700000000006 -30.9667],0.764,0.258,1.248,0.787,0.837,0.36,1.267,0.811,217.0,577.0
2015-02-07,Cordoba,Argentina,-64.1667,-31.4667,[-64.6667 -31.9667 -63.666700000000006 -30.9667],0.68,0.257,1.24,0.756,0.836,0.369,1.268,0.818,212.0,573.0
2015-02-08,Cordoba,Argentina,-64.1667,-31.4667,[-64.6667 -31.9667 -63.666700000000006 -30.9667],0.621,0.251,1.134,0.672,0.833,0.361,1.259,0.8,184.0,585.0
2015-02-09,Cordoba,Argentina,-64.1667,-31.4667,[-64.6667 -31.9667 -63.666700000000006 -30.9667],0.634,0.27,1.125,0.713,0.808,0.336,1.248,0.781,184.0,583.0
2015-02-10,Cordoba,Argentina,-64.1667,-31.4667,[-64.6667 -31.9667 -63.666700000000006 -30.9667],0.637,0.27,1.125,0.714,0.807,0.341,1.252,0.785,181.0,552.0
2015-02-11,Cordoba,Argentina,-64.1667,-31.4667,[-64.6667 -31.9667 -63.666700000000006 -30.9667],0.637,0.27,1.125,0.714,0.749,0.322,1.232,0.767,181.0,551.0
2015-02-12,Cordoba,Argentina,-64.1667,-31.4667,[-64.6667 -31.9667 -63.666700000000006 -30.9667],0.669,0.298,1.136,0.751,0.744,0.302,1.218,0.763,206.0,540.0
2015-02-13,Cordoba,Argentina,-64.1667,-31.4667,[-64.6667 -31.9667 -63.666700000000006 -30.9667],0.738,0.249,1.125,0.725,0.76,0.303,1.211,0.755,177.0,537.0
2015-02-14,Cordoba,Argentina,-64.1667,-31.4667,[-64.6667 -31.9667 -63.666700000000006 -30.9667],0.738,0.249,1.125,0.725,0.768,0.23,1.241,0.745,177.0,534.0
2015-02-15,Cordoba,Argentina,-64.1667,-31.4667,[-64.6667 -31.9667 -63.666700000000006 -30.9667],0.738,0.249,1.136,0.745,0.774,0.249,1.21,0.751,156.0,535.0
2015-02-16,Cordoba,Argentina,-64.1667,-31.4667,[-64.6667 -31.9667 -63.666700000000006 -30.9667],0.747,0.353,1.099,0.735,0.758,0.263,1.189,0.738,162.0,540.0
2015-02-17,Cordoba,Argentina,-64.1667,-31.4667,[-64.6667 -31.9667 -63.666700000000006 -30.9667],0.738,0.337,1.099,0.719,0.736,0.218,1.193,0.717,187.0,551.0
2015-02-18,Cordoba,Argentina,-64.1667,-31.4667,[-64.6667 -31.9667 -63.666700000000006 -30.9667],0.726,0.326,1.077,0.692,0.723,0.188,1.168,0.692,171.0,551.0
2015-02-19,Cordoba,Argentina,-64.1667,-31.4667,[-64.6667 -31.9667 -63.666700000000006 -30.9667],0.712,0.299,1.015,0.669,0.722,0.203,1.149,0.717,150.0,546.0
2015-02-20,Cordoba,Argentina,-64.1667,-31.4667,[-64.6667 -31.9667 -63.666700000000006 -30.9667],0.738,0.372,1.099,0.77,0.726,0.206,1.174,0.728,121.0,551.0
2015-02-21,Cordoba,Argentina,-64.1667,-31.4667,[-64.6667 -31.9667 -63.666700000000006 -30.9667],0.738,0.372,1.099,0.77,0.683,0.191,1.171,0.713,121.0,537.0
2015-02-22,Cordoba,Argentina,-64.1667,-31.4667,[-64.6667 -31.9667 -63.666700000000006 -30.9667],0.844,0.402,1.136,0.81,0.709,0.201,1.177,0.749,109.0,541.0
2015-02-23,Cordoba,Argentina,-64.1667,-31.4667,[-64.6667 -31.9667 -63.666700000000006 -30.9667],0.83,0.402,1.136,0.813,0.694,0.209,1.16,0.745,109.0,537.0
2015-02-24,Cordoba,Argentina,-64.1667,-31.4667,[-64.6667 -31.9667 -63.666700000000006 -30.9667],0.748,0.375,1.111,0.734,0.666,0.214,1.169,0.755,102.0,547.0
2015-02-25,Cordoba,Argentina,-64.1667,-31.4667,[-64.6667 -31.9667 -63.666700000000006 -30.9667],0.618,0.214,0.993,0.628,0.643,0.178,1.13,0.725,130.0,581.0
2015-02-26,Cordoba,Argentina,-64.1667,-31.4667,[-64.6667 -31.9667 -63.666700000000006 -30.9667],0.6,0.205,0.993,0.601,0.651,0.197,1.144,0.727,153.0,589.0
2015-02-27,Cordoba,Argentina,-64.1667,-31.4667,[-64.6667 -31.9667 -63.666700000000006 -30.9667],0.552,0.138,0.95,0.548,0.684,0.251,1.196,0.773,145.0,590.0
2015-02-28,Cordoba,Argentina,-64.1667,-31.4667,[-64.6667 -31.9667 -63.666700000000006 -30.9667],0.552,0.138,0.949,0.562,0.683,0.23,1.216,0.771,173.0,577.0
2015-03-01,Cordoba,Argentina,-64.1667,-31.4667,[-64.6667 -31.9667 -63.666700000000006 -30.9667],0.552,0.138,0.949,0.562,0.706,0.273,1.214,0.786,173.0,575.0
2015-03-02,Cordoba,Argentina,-64.1667,-31.4667,[-64.6667 -31.9667 -63.666700000000006 -30.9667],0.721,0.216,1.111,0.677,0.715,0.264,1.241,0.795,203.0,572.0
2015-03-03,Cordoba,Argentina,-64.1667,-31.4667,[-64.6667 -31.9667 -63.666700000000006 -30.9667],0.676,0.186,1.129,0.646,0.713,0.271,1.257,0.795,168.0,575.0
2015-03-04,Cordoba,Argentina,-64.1667,-31.4667,[-64.6667 -31.9667 -63.666700000000006 -30.9667],0.734,0.214,1.174,0.692,0.718,0.273,1.231,0.792,182.0,578.0
2015-03-05,Cordoba,Argentina,-64.1667,-31.4667,[-64.6667 -31.9667 -63.666700000000006 -30.9667],0.734,0.209,1.184,0.69,0.737,0.297,1.235,0.812,214.0,591.0
2015-03-06,Cordoba,Argentina,-64.1667,-31.4667,[-64.6667 -31.9667 -63.666700000000006 -30.9667],0.734,0.209,1.184,0.679,0.737,0.28,1.252,0.789,224.0,591.0
2015-03-07,Cordoba,Argentina,-64.1667,-31.4667,[-64.6667 -31.9667 -63.666700000000006 -30.9667],0.734,0.209,1.184,0.679,0.754,0.286,1.249,0.801,224.0,583.0
2015-03-08,Cordoba,Argentina,-64.1667,-31.4667,[-64.6667 -31.9667 -63.666700000000006 -30.9667],0.734,0.209,1.184,0.679,0.761,0.3,1.253,0.787,224.0,587.0
2015-03-09,Cordoba,Argentina,-64.1667,-31.4667,[-64.6667 -31.9667 -63.666700000000006 -30.9667],0.747,0.214,1.18,0.69,0.752,0.288,1.25,0.764,233.0,572.0
2015-03-10,Cordoba,Argentina,-64.1667,-31.4667,[-64.6667 -31.9667 -63.666700000000006 -30.9667],0.747,0.214,1.18,0.691,0.783,0.313,1.262,0.791,232.0,574.0
2015-03-11,Cordoba,Argentina,-64.1667,-31.4667,[-64.6667 -31.9667 -63.666700000000006 -30.9667],0.793,0.276,1.216,0.763,0.779,0.304,1.268,0.787,256.0,571.0
2015-03-12,Cordoba,Argentina,-64.1667,-31.4667,[-64.6667 -31.9667 -63.666700000000006 -30.9667],0.859,0.38,1.318,0.812,0.833,0.352,1.315,0.823,246.0,584.0
2015-03-13,Cordoba,Argentina,-64.1667,-31.4667,[-64.6667 -31.9667 -63.666700000000006 -30.9667],0.873,0.368,1.318,0.809,0.828,0.337,1.309,0.815,249.0,580.0
2015-03-14,Cordoba,Argentina,-64.1667,-31.4667,[-64.6667 -31.9667 -63.666700000000006 -30.9667],0.882,0.38,1.318,0.809,0.822,0.331,1.299,0.802,232.0,548.0
2015-03-15,Cordoba,Argentina,-64.1667,-31.4667,[-64.6667 -31.9667 -63.666700000000006 -30.9667],0.935,0.38,1.414,0.828,0.858,0.341,1.327,0.822,214.0,549.0
2015-03-16,Cordoba,Argentina,-64.1667,-31.4667,[-64.6667 -31.9667 -63.666700000000006 -30.9667],0.935,0.38,1.414,0.824,0.854,0.314,1.346,0.81,220.0,537.0
2015-03-17,Cordoba,Argentina,-64.1667,-31.4667,[-64.6667 -31.9667 -63.666700000000006 -30.9667],0.859,0.223,1.273,0.764,0.852,0.288,1.325,0.802,190.0,535.0
2015-03-18,Cordoba,Argentina,-64.1667,-31.4667,[-64.6667 -31.9667 -63.666700000000006 -30.9667],0.859,0.223,1.273,0.764,0.869,0.291,1.312,0.792,190.0,528.0
2015-03-19,Cordoba,Argentina,-64.1667,-31.4667,[-64.6667 -31.9667 -63.666700000000006 -30.9667],0.895,0.218,1.322,0.763,0.902,0.33,1.348,0.828,151.0,533.0
2015-03-20,Cordoba,Argentina,-64.1667,-31.4667,[-64.6667 -31.9667 -63.666700000000006 -30.9667],0.859,0.144,1.273,0.731,0.881,0.293,1.34,0.807,139.0,537.0
2015-03-21,Cordoba,Argentina,-64.1667,-31.4667,[-64.6667 -31.9667 -63.666700000000006 -30.9667],0.927,0.332,1.427,0.836,0.888,0.314,1.395,0.852,159.0,547.0
2015-03-22,Cordoba,Argentina,-64.1667,-31.4667,[-64.6667 -31.9667 -63.666700000000006 -30.9667],0.828,0.223,1.318,0.784,0.874,0.305,1.405,0.849,177.0,548.0
2015-03-23,Cordoba,Argentina,-64.1667,-31.4667,[-64.6667 -31.9667 -63.666700000000006 -30.9667],0.795,0.223,1.318,0.771,0.915,0.341,1.423,0.878,196.0,542.0
2015-03-24,Cordoba,Argentina,-64.1667,-31.4667,[-64.6667 -31.9667 -63.666700000000006 -30.9667],0.793,0.084,1.322,0.746,0.926,0.314,1.44,0.887,205.0,547.0
2015-03-25,Cordoba,Argentina,-64.1667,-31.4667,[-64.6667 -31.9667 -63.666700000000006 -30.9667],0.861,0.223,1.427,0.802,0.919,0.304,1.467,0.883,236.0,533.0
2015-03-26,Cordoba,Argentina,-64.1667,-31.4667,[-64.6667 -31.9667 -63.666700000000006 -30.9667],0.756,0.076,1.373,0.743,0.933,0.299,1.478,0.891,196.0,538.0
2015-03-27,Cordoba,Argentina,-64.1667,-31.4667,[-64.6667 -31.9667 -63.666700000000006 -30.9667],0.607,0.177,1.223,0.707,0.865,0.273,1.408,0.851,214.0,534.0
2015-03-28,Cordoba,Argentina,-64.1667,-31.4667,[-64.6667 -31.9667 -63.666700000000006 -30.9667],0.606,0.201,1.219,0.734,0.884,0.304,1.409,0.876,188.0,546.0
2015-03-29,Cordoba,Argentina,-64.1667,-31.4667,[-64.6667 -31.9667 -63.666700000000006 -30.9667],0.663,0.203,1.282,0.756,0.898,0.274,1.409,0.868,203.0,582.0
2015-03-30,Cordoba,Argentina,-64.1667,-31.4667,[-64.6667 -31.9667 -63.666700000000006 -30.9667],0.663,0.205,1.26,0.736,0.847,0.22,1.416,0.839,217.0,591.0
2015-03-31,Cordoba,Argentina,-64.1667,-31.4667,[-64.6667 -31.9667 -63.666700000000006 -30.9667],0.768,0.245,1.282,0.778,0.851,0.246,1.404,0.837,231.0,593.0
2015-04-01,Cordoba,Argentina,-64.1667,-31.4667,[-64.6667 -31.9667 -63.666700000000006 -30.9667],0.812,0.245,1.292,0.801,0.852,0.239,1.416,0.827,256.0,581.0
2015-04-02,Cordoba,Argentina,-64.1667,-31.4667,[-64.6667 -31.9667 -63.666700000000006 -30.9667],0.812,0.245,1.292,0.801,0.838,0.25,1.408,0.823,256.0,581.0
2015-04-03,Cordoba,Argentina,-64.1667,-31.4667,[-64.6667 -31.9667 -63.666700000000006 -30.9667],0.828,0.344,1.318,0.839,0.813,0.247,1.356,0.803,292.0,576.0
2015-04-04,Cordoba,Argentina,-64.1667,-31.4667,[-64.6667 -31.9667 -63.666700000000006 -30.9667],0.833,0.365,1.33,0.866,0.804,0.219,1.353,0.802,272.0,577.0
2015-04-05,Cordoba,Argentina,-64.1667,-31.4667,[-64.6667 -31.9667 -63.666700000000006 -30.9667],0.882,0.407,1.357,0.885,0.78,0.201,1.322,0.779,275.0,580.0
2015-04-06,Cordoba,Argentina,-64.1667,-31.4667,[-64.6667 -31.9667 -63.666700000000006 -30.9667],0.938,0.471,1.373,0.929,0.821,0.207,1.364,0.797,288.0,591.0
2015-04-07,Cordoba,Argentina,-64.1667,-31.4667,[-64.6667 -31.9667 -63.666700000000006 -30.9667],0.938,0.495,1.377,0.948,0.796,0.203,1.313,0.768,278.0,590.0
2015-04-08,Cordoba,Argentina,-64.1667,-31.4667,[-64.6667 -31.9667 -63.666700000000006 -30.9667],0.945,0.514,1.425,0.988,0.761,0.209,1.326,0.75,272.0,582.0
2015-04-09,Cordoba,Argentina,-64.1667,-31.4667,[-64.6667 -31.9667 -63.666700000000006 -30.9667],0.938,0.496,1.377,0.958,0.773,0.203,1.313,0.745,260.0,587.0
2015-04-10,Cordoba,Argentina,-64.1667,-31.4667,[-64.6667 -31.9667 -63.666700000000006 -30.9667],0.833,0.417,1.357,0.901,0.748,0.199,1.302,0.739,289.0,571.0
2015-04-11,Cordoba,Argentina,-64.1667,-31.4667,[-64.6667 -31.9667 -63.666700000000006 -30.9667],0.976,0.495,1.509,0.974,0.807,0.255,1.343,0.776,253.0,574.0
2015-04-12,Cordoba,Argentina,-64.1667,-31.4667,[-64.6667 -31.9667 -63.666700000000006 -30.9667],0.914,0.448,1.377,0.93,0.781,0.218,1.292,0.75,272.0,571.0
2015-04-13,Cordoba,Argentina,-64.1667,-31.4667,[-64.6667 -31.9667 -63.666700000000006 -30.9667],0.902,0.429,1.377,0.93,0.778,0.264,1.3,0.778,273.0,581.0
2015-04-14,Cordoba,Argentina,-64.1667,-31.4667,[-64.6667 -31.9667 -63.666700000000006 -30.9667],0.932,0.458,1.456,0.946,0.805,0.302,1.344,0.8,263.0,577.0
2015-04-15,Cordoba,Argentina,-64.1667,-31.4667,[-64.6667 -31.9667 -63.666700000000006 -30.9667],0.878,0.417,1.387,0.928,0.791,0.32,1.328,0.808,243.0,545.0
2015-04-16,Cordoba,Argentina,-64.1667,-31.4667,[-64.6667 -31.9667 -63.666700000000006 -30.9667],0.832,0.417,1.357,0.885,0.784,0.311,1.343,0.814,243.0,546.0
2015-04-17,Cordoba,Argentina,-64.1667,-31.4667,[-64.6667 -31.9667 -63.666700000000006 -30.9667],0.829,0.416,1.34,0.876,0.77,0.313,1.295,0.795,269.0,535.0
2015-04-18,Cordoba,Argentina,-64.1667,-31.4667,[-64.6667 -31.9667 -63.666700000000006 -30.9667],0.799,0.224,1.357,0.845,0.781,0.279,1.305,0.794,233.0,533.0
2015-04-19,Cordoba,Argentina,-64.1667,-31.4667,[-64.6667 -31.9667 -63.666700000000006 -30.9667],0.823,0.341,1.305,0.841,0.78,0.329,1.291,0.8,265.0,532.0
2015-04-20,Cordoba,Argentina,-64.1667,-31.4667,[-64.6667 -31.9667 -63.666700000000006 -30.9667],0.799,0.119,1.202,0.762,0.774,0.283,1.26,0.775,232.0,537.0
2015-04-21,Cordoba,Argentina,-64.1667,-31.4667,[-64.6667 -31.9667 -63.666700000000006 -30.9667],0.799,0.105,1.2,0.734,0.766,0.269,1.231,0.745,204.0,541.0
2015-04-22,Cordoba,Argentina,-64.1667,-31.4667,[-64.6667 -31.9667 -63.666700000000006 -30.9667],0.771,0.095,1.2,0.715,0.73,0.201,1.221,0.726,204.0,551.0
2015-04-23,Cordoba,Argentina,-64.1667,-31.4667,[-64.6667 -31.9667 -63.666700000000006 -30.9667],0.767,0.093,1.134,0.674,0.752,0.205,1.205,0.734,192.0,550.0
2015-04-24,Cordoba,Argentina,-64.1667,-31.4667,[-64.6667 -31.9667 -63.666700000000006 -30.9667],0.767,0.113,1.148,0.683,0.763,0.206,1.184,0.735,173.0,543.0
2015-04-25,Cordoba,Argentina,-64.1667,-31.4667,[-64.6667 -31.9667 -63.666700000000006 -30.9667],0.799,0.152,1.2,0.723,0.788,0.223,1.263,0.781,164.0,549.0
2015-04-26,Cordoba,Argentina,-64.1667,-31.4667,[-64.6667 -31.9667 -63.666700000000006 -30.9667],0.822,0.341,1.26,0.831,0.745,0.226,1.297,0.79,192.0,540.0
2015-04-27,Cordoba,Argentina,-64.1667,-31.4667,[-64.6667 -31.9667 -63.666700000000006 -30.9667],0.823,0.364,1.305,0.879,0.749,0.214,1.285,0.782,173.0,543.0
2015-04-28,Cordoba,Argentina,-64.1667,-31.4667,[-64.6667 -31.9667 -63.666700000000006 -30.9667],0.892,0.429,1.323,0.91,0.746,0.162,1.226,0.75,180.0,542.0
2015-04-29,Cordoba,Argentina,-64.1667,-31.4667,[-64.6667 -31.9667 -63.666700000000006 -30.9667],0.867,0.364,1.305,0.867,0.715,0.11,1.211,0.722,175.0,553.0
2015-04-30,Cordoba,Argentina,-64.1667,-31.4667,[-64.6667 -31.9667 -63.666700000000006 -30.9667],0.867,0.364,1.305,0.867,0.731,0.105,1.258,0.73,175.0,584.0
2015-05-01,Cordoba,Argentina,-64.1667,-31.4667,[-64.6667 -31.9667 -63.666700000000006 -30.9667],0.942,0.383,1.392,0.897,0.755,0.113,1.303,0.747,176.0,588.0
2015-05-02,Cordoba,Argentina,-64.1667,-31.4667,[-64.6667 -31.9667 -63.666700000000006 -30.9667],1.046,0.383,1.461,0.918,0.824,0.151,1.396,0.802,156.0,590.0
2015-05-03,Cordoba,Argentina,-64.1667,-31.4667,[-64.6667 -31.9667 -63.666700000000006 -30.9667],0.969,0.44,1.461,0.923,0.818,0.172,1.406,0.822,179.0,579.0
2015-05-04,Cordoba,Argentina,-64.1667,-31.4667,[-64.6667 -31.9667 -63.666700000000006 -30.9667],0.98,0.442,1.623,0.962,0.788,0.128,1.41,0.798,147.0,574.0
2015-05-05,Cordoba,Argentina,-64.1667,-31.4667,[-64.6667 -31.9667 -63.666700000000006 -30.9667],1.138,0.541,1.653,1.033,0.798,0.16,1.435,0.808,160.0,571.0
2015-05-06,Cordoba,Argentina,-64.1667,-31.4667,[-64.6667 -31.9667 -63.666700000000006 -30.9667],1.157,0.541,1.653,1.04,0.824,0.166,1.464,0.827,157.0,573.0
2015-05-07,Cordoba,Argentina,-64.1667,-31.4667,[-64.6667 -31.9667 -63.666700000000006 -30.9667],1.089,0.495,1.647,0.984,0.855,0.199,1.56,0.894,177.0,576.0
2015-05-08,Cordoba,Argentina,-64.1667,-31.4667,[-64.6667 -31.9667 -63.666700000000006 -30.9667],1.089,0.495,1.647,0.986,0.869,0.188,1.569,0.897,186.0,589.0
2015-05-09,Cordoba,Argentina,-64.1667,-31.4667,[-64.6667 -31.9667 -63.666700000000006 -30.9667],1.118,0.511,1.653,1.025,0.939,0.175,1.702,0.944,200.0,586.0
2015-05-10,Cordoba,Argentina,-64.1667,-31.4667,[-64.6667 -31.9667 -63.666700000000006 -30.9667],1.089,0.485,1.623,0.967,0.941,0.165,1.654,0.919,207.0,579.0
2015-05-11,Cordoba,Argentina,-64.1667,-31.4667,[-64.6667 -31.9667 -63.666700000000006 -30.9667],0.969,0.421,1.467,0.891,0.861,0.115,1.629,0.893,183.0,578.0
2015-05-12,Cordoba,Argentina,-64.1667,-31.4667,[-64.6667 -31.9667 -63.666700000000006 -30.9667],0.947,0.225,1.446,0.862,0.941,0.101,1.691,0.943,204.0,570.0
2015-05-13,Cordoba,Argentina,-64.1667,-31.4667,[-64.6667 -31.9667 -63.666700000000006 -30.9667],0.944,0.094,1.425,0.812,1.012,0.116,1.769,1.03,181.0,573.0
2015-05-14,Cordoba,Argentina,-64.1667,-31.4667,[-64.6667 -31.9667 -63.666700000000006 -30.9667],0.885,0.073,1.541,0.873,1.064,0.224,1.793,1.077,205.0,571.0
2015-05-15,Cordoba,Argentina,-64.1667,-31.4667,[-64.6667 -31.9667 -63.666700000000006 -30.9667],0.885,0.073,1.541,0.857,1.075,0.251,1.859,1.095,214.0,587.0
2015-05-16,Cordoba,Argentina,-64.1667,-31.4667,[-64.6667 -31.9667 -63.666700000000006 -30.9667],0.885,0.073,1.522,0.865,1.119,0.315,1.911,1.144,188.0,583.0
2015-05-17,Cordoba,Argentina,-64.1667,-31.4667,[-64.6667 -31.9667 -63.666700000000006 -30.9667],0.87,0.094,1.519,0.86,1.102,0.329,1.907,1.155,182.0,550.0
2015-05-18,Cordoba,Argentina,-64.1667,-31.4667,[-64.6667 -31.9667 -63.666700000000006 -30.9667],0.885,0.019,1.522,0.849,1.114,0.324,1.918,1.157,159.0,550.0
2015-05-19,Cordoba,Argentina,-64.1667,-31.4667,[-64.6667 -31.9667 -63.666700000000006 -30.9667],0.885,0.019,1.522,0.849,1.168,0.415,1.956,1.229,159.0,539.0
2015-05-20,Cordoba,Argentina,-64.1667,-31.4667,[-64.6667 -31.9667 -63.666700000000006 -30.9667],0.726,-0.129,1.428,0.753,1.174,0.415,1.973,1.239,146.0,535.0
2015-05-21,Cordoba,Argentina,-64.1667,-31.4667,[-64.6667 -31.9667 -63.666700000000006 -30.9667],0.657,-0.21,1.384,0.678,1.138,0.423,1.935,1.216,173.0,534.0
2015-05-22,Cordoba,Argentina,-64.1667,-31.4667,[-64.6667 -31.9667 -63.666700000000006 -30.9667],0.645,-0.259,1.446,0.678,1.153,0.461,1.979,1.232,144.0,540.0
2015-05-23,Cordoba,Argentina,-64.1667,-31.4667,[-64.6667 -31.9667 -63.666700000000006 -30.9667],0.81,-0.138,1.458,0.754,1.161,0.434,1.948,1.217,172.0,545.0
2015-05-24,Cordoba,Argentina,-64.1667,-31.4667,[-64.6667 -31.9667 -63.666700000000006 -30.9667],0.758,-0.21,1.522,0.738,1.134,0.402,1.949,1.207,191.0,560.0
2015-05-25,Cordoba,Argentina,-64.1667,-31.4667,[-64.6667 -31.9667 -63.666700000000006 -30.9667],0.871,-0.072,1.672,0.87,1.158,0.419,1.991,1.226,179.0,557.0
2015-05-26,Cordoba,Argentina,-64.1667,-31.4667,[-64.6667 -31.9667 -63.666700000000006 -30.9667],0.895,-0.072,1.672,0.9,1.178,0.451,1.997,1.244,182.0,551.0
2015-05-27,Cordoba,Argentina,-64.1667,-31.4667,[-64.6667 -31.9667 -63.666700000000006 -30.9667],0.895,-0.072,1.754,0.97,1.218,0.477,2.062,1.292,180.0,551.0
2015-05-28,Cordoba,Argentina,-64.1667,-31.4667,[-64.6667 -31.9667 -63.666700000000006 -30.9667],0.895,-0.072,1.738,0.956,1.221,0.472,2.048,1.267,208.0,540.0
2015-05-29,Cordoba,Argentina,-64.1667,-31.4667,[-64.6667 -31.9667 -63.666700000000006 -30.9667],0.925,0.023,1.742,0.964,1.27,0.521,2.041,1.267,175.0,543.0
2015-05-30,Cordoba,Argentina,-64.1667,-31.4667,[-64.6667 -31.9667 -63.666700000000006 -30.9667],1.055,0.107,1.918,1.068,1.291,0.501,2.069,1.281,201.0,540.0
2015-05-31,Cordoba,Argentina,-64.1667,-31.4667,[-64.6667 -31.9667 -63.666700000000006 -30.9667],1.021,0.107,1.853,1.042,1.281,0.428,2.132,1.263,211.0,553.0